Flag for Australia Weather past 2 weeks in Mildura, Victoria, Australia

Now
78 °F

Pleasantly warm.


Feels Like: 78 °F
Forecast: 59 / 90 °F
Wind: 6 mph from Southwest

Location: Mildura Airport

Current Time: Dec 27, 2014 at 2:51:19 PM

Latest Report: Dec 27, 2014 at 1:00 PM


Visibility: N/A

Pressure: 30.09 "Hg

Humidity: 21%

Dew point: 35 °F

Location of MilduraLocation

Historic Weather in Mildura — Graph

°F

Mildura temperature yesterday

Maximum temperature yesterday: 78 °F (at 6:00 PM)
Minimum temperature yesterday: 51 °F (at 6:00 AM)
Average temperature yesterday: 65 °F

Past Weeks' High & Low Weather Summary

 TemperatureHumidityPressure
High103 °F (Dec 15, 6:00 PM)86% (Dec 23, 6:00 AM)30.11 "Hg (Dec 23, 6:00 AM)
Low51 °F (Dec 17, 6:00 AM)9% (Dec 22, 1:00 PM)29.44 "Hg (Dec 15, 7:00 PM)
Average75 °F33%29.84 "Hg
* Reported Dec 12 1:00 PM — Dec 27 1:00 PM, Mildura, Weather by CustomWeather, © 2014

Note: Actual official high and low records may vary slightly from our data, if they occured in-between our weather recording intervals... More about our weather records

Advertising

Mildura weather history for previous 24 hours

 ConditionsComfort  
Time TempWeatherWind HumidityBarometerVisibility
1:00 PM
Dec 27
78 °FPleasantly warm.6 mph21%30.09 "HgN/A
12:00 PM75 °FMild.7 mph24%30.11 "HgN/A
11:00 AM75 °FMild.7 mph24%30.11 "HgN/A
10:00 AM71 °FMild.9 mph30%30.11 "HgN/A
9:00 AM65 °FPartly sunny.12 mph36%30.11 "Hg19 mi
7:00 AM53 °FCool.6 mph45%30.09 "HgN/A
6:00 AM53 °FCool.6 mph45%30.07 "HgN/A
5:00 AM56 °FRefreshingly cool.8 mph39%30.04 "HgN/A
4:00 AM55 °FRefreshingly cool.8 mph37%30.04 "HgN/A
3:00 AM57 °FRefreshingly cool.7 mph33%30.05 "HgN/A
2:00 AM56 °FRefreshingly cool.3 mph37%30.05 "HgN/A
1:00 AM58 °FRefreshingly cool.3 mph36%30.04 "HgN/A
12:00 AM61 °FRefreshingly cool.5 mph30%30.04 "HgN/A
11:00 PM
Dec 26
63 °FMild.3 mph28%30.04 "HgN/A
10:00 PM66 °FMild.3 mph27%30.03 "HgN/A
9:00 PM71 °FMild.5 mph22%30.00 "HgN/A
8:00 PM76 °FMild.6 mph17%30.01 "HgN/A
7:00 PM77 °FPleasantly warm.8 mph16%29.97 "HgN/A
6:00 PM78 °FPleasantly warm.9 mph15%29.96 "HgN/A
5:00 PM76 °FMild.10 mph16%29.98 "HgN/A
4:00 PM76 °FMild.14 mph18%30.00 "HgN/A
3:00 PM74 °FMild.10 mph20%30.02 "HgN/A
2:00 PM72 °FMild.15 mph19%30.05 "HgN/A
Weather by CustomWeather, © 2014

See weather overviewHow to use our weather pages